DW7889 Weather Reports


Display with metric or nautical units.
time (UTC)temp
F
wind
direction
speed
MPH
gust
MPH
rain 1hr
in
rain 24hr
in
rain mn
in
humidity
%
barometer
mb
20260831061043 58 60 4.0 5.0 0.00 0.94 0.00 90 1014.5
20260831060543 58 18 0.0 4.0 0.00 0.94 0.00 89 1014.4
20260831060045 59 126 3.0 5.0 0.00 0.94 0.00 89 1014.4
20260831055545 59 65 3.0 6.0 0.00 0.94 0.00 89 1014.6
20260831055047 59 88 2.0 6.0 0.00 0.94 0.00 89 1014.7
20260831054529 59 75 1.0 7.0 0.00 0.94 0.00 90 1015.0
20260831054031 58 25 3.0 6.0 0.00 0.94 0.00 90 1015.1
20260831053533 58 14 4.0 6.0 0.00 0.94 0.00 90 1015.1
20260831053035 58 359 3.0 4.0 0.00 0.94 0.00 90 1015.0
20260831052535 58 8 2.0 9.0 0.00 0.94 0.00 89 1014.2
20260831052037 59 113 5.0 9.0 0.00 0.94 0.00 88 1014.1
20260831051601 59 123 6.0 11.0 0.00 0.94 0.00 88 1014.1
20260831051038 59 110 7.0 12.0 0.00 0.94 0.00 87 1014.4
20260831050547 59 161 6.0 13.0 0.00 0.94 0.00 87 1014.5
20260831050032 59 89 7.0 13.0 0.00 0.94 0.00 88 1014.6
20260831045535 59 96 5.0 10.0 0.00 0.94 0.00 88 1014.5
20260831045038 59 43 4.0 11.0 0.00 0.94 0.00 89 1014.8
20260831044540 59 18 6.0 12.0 0.00 0.94 0.00 89 1015.2
20260831044046 58 102 8.0 11.0 0.00 0.94 0.00 90 1014.7
20260831043528 58 39 4.0 8.0 0.00 0.94 0.00 91 1015.9
20260831043031 58 332 3.0 5.0 0.00 0.94 0.00 92 1016.4
20260831042531 57 45 3.0 4.0 0.00 0.94 0.00 92 1015.8
20260831042035 57 9 1.0 4.0 0.00 0.94 0.00 91 1015.4
20260831041537 58 150 2.0 4.0 0.00 0.94 0.00 91 1015.4
20260831041038 58 187 1.0 9.0 0.00 0.94 0.00 90 1015.6
20260831040540 58 158 3.0 12.0 0.00 0.94 0.00 89 1015.4
20260831040026 59 124 8.0 14.0 0.00 0.94 0.00 88 1014.9
20260831035530 59 56 7.0 14.0 0.00 0.94 0.00 88 1015.1
20260831035033 59 88 7.0 14.0 0.00 0.94 0.00 88 1015.0
20260831034537 59 114 7.0 13.0 0.00 0.94 0.00 89 1015.2
20260831034040 59 74 8.0 13.0 0.00 0.94 0.00 89 1015.4
20260831033540 59 84 5.0 11.0 0.00 0.94 0.00 89 1015.5
20260831033043 59 105 8.0 11.0 0.00 0.94 0.00 89 1015.5
20260831032525 59 90 7.0 13.0 0.00 0.94 0.00 89 1015.4
20260831032051 59 33 6.0 20.0 0.00 0.94 0.00 89 1015.4
20260831031550 59 92 10.0 20.0 0.00 0.94 0.00 90 1015.3
20260831031030 58 85 10.0 15.0 0.00 0.94 0.00 90 1015.3
20260831030532 58 106 10.0 18.0 0.00 0.94 0.24 91 1015.5
20260831030033 58 92 11.0 18.0 0.00 0.94 0.24 92 1015.5
20260831025533 58 100 12.0 17.0 0.00 0.94 0.24 92 1015.5
20260831025035 58 103 10.0 16.0 0.00 0.94 0.24 94 1016.2
20260831024542 57 68 5.0 11.0 0.00 0.94 0.24 95 1016.5
20260831024044 57 69 7.0 16.0 0.00 0.94 0.24 96 1016.4
20260831023528 57 117 7.0 16.0 0.00 0.94 0.24 96 1016.1
20260831023050 57 40 8.0 13.0 0.00 0.94 0.24 96 1016.2
20260831022531 57 112 7.0 15.0 0.00 0.94 0.24 96 1016.2
20260831021525 57 129 9.0 12.0 0.00 0.94 0.24 96 1016.0
20260831021109 57 112 327.0 327.0 0.00 0.00 0.24 96 1016.5
20260831020031 57 140 8.0 12.0 0.00 0.94 0.24 96 1016.9
20260831015551 57 111 8.0 16.0 0.00 0.94 0.24 97 1016.9
20260831015031 57 106 9.0 16.0 0.04 0.94 0.24 96 1016.7
20260831014535 57 119 9.0 15.0 0.04 0.94 0.24 97 1016.9
20260831014039 57 129 9.0 15.0 0.04 0.94 0.24 97 1016.8
20260831013540 57 142 10.0 15.0 0.04 0.94 0.24 97 1016.7
20260831013043 57 119 11.0 15.0 0.08 0.94 0.24 96 1016.6
20260831012528 57 128 8.0 14.0 0.12 0.94 0.24 96 1017.0
20260831012030 57 153 7.0 16.0 0.12 0.94 0.24 96 1017.0
20260831011534 57 120 11.0 16.0 0.20 0.94 0.24 96 1017.1
20260831011057 57 150 9.0 12.0 0.28 0.94 0.24 96 1017.4
20260831010535 57 141 6.0 11.0 0.39 0.94 0.24 96 1017.6
20260831010041 57 101 5.0 11.0 0.39 0.94 0.24 96 1017.7
20260831005544 57 131 7.0 11.0 0.39 0.94 0.24 96 1017.8
20260831005026 57 132 8.0 11.0 0.35 0.91 0.23 96 1017.9
20260831004530 57 118 7.0 9.0 0.35 0.91 0.23 96 1018.5
20260831004033 58 99 3.0 11.0 0.35 0.91 0.23 95 1019.0
20260831003537 57 162 5.0 13.0 0.35 0.91 0.23 96 1019.1
20260831003040 57 195 5.0 13.0 0.31 0.87 0.22 95 1019.1
20260831002540 57 217 5.0 14.0 0.28 0.83 0.21 95 1018.4
20260831002101 57 169 8.0 18.0 0.28 0.83 0.21 95 1018.4
20260831001528 57 165 9.0 21.0 0.20 0.75 0.19 95 1018.4
20260831001031 57 176 12.0 21.0 0.12 0.67 0.17 94 1017.9
20260831000551 57 190 12.0 18.0 0.00 0.55 0.14 94 1017.6
20260831000032 57 217 11.0 17.0 0.00 0.55 0.14 94 1016.6
20260830235533 57 181 5.0 12.0 0.00 0.55 0.14 94 1015.1
20260830235037 57 152 8.0 14.0 0.00 0.55 0.14 93 1014.7
20260830234541 57 165 9.0 19.0 0.00 0.55 0.14 92 1014.6
20260830234102 58 131 14.0 19.0 0.00 0.55 0.14 92 1014.4
20260830233542 58 110 13.0 17.0 0.04 0.55 0.14 92 1015.0
20260830233045 58 121 7.0 13.0 0.04 0.55 0.14 92 1015.7
20260830232544 58 91 9.0 15.0 0.08 0.55 0.14 92 1015.5
20260830232046 58 130 11.0 17.0 0.12 0.55 0.14 92 1015.2
20260830231548 58 105 13.0 26.0 0.16 0.55 0.14 92 1014.9
20260830231028 58 121 18.0 26.0 0.16 0.55 0.14 92 1014.8
20260830230529 58 105 13.0 23.0 0.16 0.67 0.14 93 1014.8
20260830230033 58 101 12.0 23.0 0.16 0.67 0.14 94 1014.8
20260830225541 57 91 12.0 21.0 0.16 0.67 0.14 94 1014.6
20260830225043 57 115 12.0 21.0 0.16 0.67 0.14 94 1014.4
20260830224528 57 101 14.0 20.0 0.20 0.67 0.14 95 1014.5
20260830224031 57 122 13.0 18.0 0.24 0.67 0.14 95 1014.6
20260830223534 57 128 10.0 13.0 0.20 0.63 0.13 95 1015.0
20260830223037 57 133 6.0 10.0 0.20 0.63 0.13 94 1015.5
20260830222541 58 176 5.0 9.0 0.20 0.59 0.12 94 1016.1
20260830222042 58 129 5.0 9.0 0.20 0.55 0.11 94 1016.1
20260830221544 58 104 4.0 10.0 0.16 0.51 0.10 94 1016.2
20260830221028 58 132 7.0 14.0 0.20 0.51 0.10 93 1015.8
20260830220551 58 123 11.0 14.0 0.20 0.51 0.10 93 1015.1
20260830220054 58 113 11.0 16.0 0.20 0.51 0.10 93 1015.1
20260830215533 58 74 11.0 16.0 0.24 0.51 0.10 93 1015.1
20260830215035 58 123 11.0 16.0 0.24 0.51 0.10 93 1014.6
20260830214542 58 88 11.0 16.0 0.20 0.47 0.09 94 1015.0
20260830214044 58 98 11.0 15.0 0.16 0.43 0.08 93 1014.9
20260830213546 58 124 9.0 14.0 0.16 0.43 0.08 93 1015.4
20260830213049 58 113 5.0 9.0 0.16 0.43 0.08 94 1015.4
20260830212529 58 177 6.0 12.0 0.12 0.39 0.07 93 1015.3
20260830212052 58 118 6.0 15.0 0.08 0.35 0.06 94 1015.8
20260830211534 58 208 10.0 17.0 0.08 0.35 0.06 94 1015.6
20260830211035 58 191 7.0 19.0 0.04 0.31 0.05 94 1014.4
20260830210535 58 124 11.0 19.0 0.04 0.55 0.05 94 1013.9
20260830210040 58 117 10.0 19.0 0.04 0.55 0.05 94 1014.2
20260830205541 58 119 12.0 18.0 0.04 0.51 0.04 94 1014.1
20260830205024 59 134 12.0 17.0 0.08 0.51 0.04 94 1014.6
20260830204529 59 150 9.0 12.0 0.08 0.51 0.04 94 1015.1
20260830204035 59 79 7.0 11.0 0.12 0.51 0.04 94 1015.3
20260830203536 59 123 6.0 10.0 0.12 0.51 0.04 95 1015.4
20260830203039 59 51 8.0 14.0 0.12 0.51 0.04 94 1015.1
20260830202541 59 131 10.0 16.0 0.12 0.51 0.04 95 1014.6
20260830202044 59 120 10.0 13.0 0.12 0.51 0.04 95 1014.5
20260830201527 59 136 7.0 11.0 0.12 0.51 0.04 95 1014.9
20260830201028 59 156 6.0 12.0 0.12 0.51 0.04 95 1014.4
20260830200531 59 141 9.0 12.0 0.12 0.55 0.04 95 1014.5
20260830195120 59 175 6.0 10.0 0.08 0.47 0.02 94 1015.2
20260830194615 59 117 4.0 11.0 0.08 0.47 0.02 94 1015.9
20260830193535 59 141 10.0 14.0 0.04 0.43 0.01 95 1014.9
20260830193057 60 147 7.0 13.0 0.04 0.43 0.01 95 1014.9
20260830192538 60 181 7.0 15.0 0.04 0.43 0.01 95 1014.7
20260830192039 60 115 11.0 15.0 0.04 0.43 0.01 95 1014.6
20260830191604 60 143 8.0 17.0 0.04 0.43 0.01 95 1014.6
20260830191030 60 117 13.0 17.0 0.04 0.43 0.01 95 1014.5
20260830190534 60 127 11.0 17.0 0.04 0.83 0.01 95 1014.7
20260830190040 60 143 9.0 14.0 0.04 0.83 0.01 95 1015.0
20260830185541 60 181 5.0 12.0 0.00 0.79 0.00 95 1015.5
20260830185044 60 108 9.0 12.0 0.00 0.79 0.00 95 1014.9
20260830184529 60 174 6.0 10.0 0.00 0.79 0.00 95 1015.5
20260830184049 60 137 5.0 11.0 0.00 0.79 0.00 94 1015.7
20260830183530 60 139 6.0 12.0 0.00 0.79 0.00 95 1016.1
20260830183054 60 226 6.0 15.0 0.00 0.79 0.00 95 1015.5
20260830182537 60 165 7.0 15.0 0.00 0.79 0.00 95 1014.3
20260830182036 60 113 9.0 15.0 0.00 0.79 0.00 95 1014.4
20260830181600 60 166 8.0 16.0 0.00 0.79 0.00 94 1014.8
20260830181039 60 195 9.0 16.0 0.00 0.79 0.00 94 1014.2
20260830180539 60 157 7.0 12.0 0.00 1.22 0.00 94 1014.9
20260830180059 60 134 6.0 11.0 0.00 1.22 0.00 94 1015.0
20260830175539 60 167 6.0 11.0 0.00 1.22 0.00 94 1014.9
20260830175042 60 179 6.0 11.0 0.00 1.22 0.00 94 1014.7
20260830174604 60 143 7.0 11.0 0.00 1.22 0.00 94 1014.8
20260830174106 60 148 6.0 9.0 0.00 1.22 0.00 94 1014.9
20260830173532 60 161 5.0 11.0 0.00 1.22 0.00 94 1015.0
20260830173056 60 157 6.0 11.0 0.00 1.22 0.00 94 1015.1
20260830172536 60 182 6.0 10.0 0.00 1.22 0.00 94 1015.3
20260830172039 60 165 6.0 13.0 0.00 1.22 0.00 94 1015.6
20260830171543 60 189 9.0 13.0 0.00 1.22 0.00 93 1016.0
20260830171046 60 172 6.0 10.0 0.00 1.22 0.00 93 1016.1
20260830170529 60 195 5.0 13.0 0.00 1.93 0.00 93 1015.9
20260830170035 60 173 7.0 13.0 0.00 1.93 0.00 93 1015.6
20260830165558 60 113 5.0 11.0 0.00 1.93 0.00 94 1015.8
20260830165100 60 176 6.0 16.0 0.00 1.93 0.00 94 1015.9
20260830164538 60 184 8.0 16.0 0.00 1.93 0.00 94 1015.9
20260830164040 60 192 6.0 11.0 0.00 1.93 0.00 93 1016.1
20260830163542 60 166 5.0 13.0 0.00 1.93 0.00 94 1016.1
20260830163027 60 188 6.0 13.0 0.00 1.93 0.00 93 1016.2
20260830162530 60 210 7.0 10.0 0.00 1.93 0.00 93 1016.2
20260830162034 60 170 7.0 11.0 0.00 1.93 0.00 93 1015.9
20260830161539 60 167 7.0 13.0 0.00 1.93 0.00 93 1016.0
20260830161041 60 182 6.0 13.0 0.00 1.93 0.00 93 1016.2
20260830160523 60 155 4.0 12.0 0.00 2.05 0.00 93 1016.1
20260830160028 60 143 5.0 10.0 0.00 2.05 0.00 92 1016.6
20260830155529 61 198 6.0 11.0 0.00 2.05 0.00 91 1016.8
20260830155032 61 186 7.0 11.0 0.00 2.05 0.00 90 1016.6
20260830154533 62 168 6.0 11.0 0.00 2.05 0.00 89 1016.5
20260830154055 62 209 6.0 10.0 0.00 2.05 0.00 89 1016.5
20260830153537 62 214 6.0 14.0 0.00 2.05 0.00 87 1016.6
20260830153039 63 215 8.0 14.0 0.00 2.05 0.00 86 1016.6
20260830152602 63 126 8.0 11.0 0.00 2.05 0.00 86 1016.2
20260830152045 62 156 6.0 11.0 0.00 2.05 0.00 86 1016.3
20260830151545 62 155 6.0 12.0 0.00 2.05 0.00 87 1016.4
20260830151030 61 170 6.0 9.0 0.00 2.05 0.00 86 1016.3
20260830150531 62 172 5.0 8.0 0.00 2.24 0.00 86 1016.4
20260830150033 62 170 5.0 11.0 0.00 2.24 0.00 87 1016.7
20260830145538 61 159 6.0 12.0 0.00 2.24 0.00 87 1016.9
20260830145041 61 186 7.0 12.0 0.00 2.24 0.00 87 1016.5
20260830144544 61 170 7.0 13.0 0.00 2.24 0.00 88 1016.3
20260830144046 61 190 9.0 13.0 0.00 2.24 0.00 89 1016.2
20260830143526 61 185 8.0 12.0 0.00 2.24 0.00 88 1016.5
20260830143031 61 166 8.0 12.0 0.00 2.24 0.00 88 1016.6
20260830142534 61 189 5.0 9.0 0.00 2.24 0.00 88 1016.6
20260830142035 61 181 6.0 12.0 0.00 2.24 0.00 87 1016.8
20260830141538 61 203 5.0 12.0 0.00 2.24 0.00 87 1016.9
20260830141039 61 181 6.0 9.0 0.00 2.24 0.00 89 1016.7
20260830140544 61 188 6.0 10.0 0.00 2.24 0.00 88 1016.7
20260830140028 60 173 5.0 10.0 0.00 2.24 0.00 88 1016.8
20260830135530 61 179 4.0 9.0 0.00 2.24 0.00 88 1017.0
20260830135052 61 224 4.0 11.0 0.00 2.24 0.00 88 1017.1
20260830134046 61 178 6.0 11.0 0.00 2.24 0.00 86 1017.3
20260830133558 61 140 5.0 10.0 0.00 2.24 0.00 87 1017.1
20260830132541 60 98 5.0 8.0 0.00 2.24 0.00 87 1017.5
20260830132044 60 105 5.0 7.0 0.00 2.24 0.00 88 1017.5
20260830131528 59 127 4.0 10.0 0.00 2.24 0.00 88 1017.4
20260830131029 59 197 4.0 10.0 0.00 2.24 0.00 88 1017.5
20260830130528 59 187 4.0 11.0 0.00 3.31 0.00 89 1017.2
20260830130036 59 148 6.0 11.0 0.00 3.31 0.00 88 1017.4
20260830125539 59 117 5.0 10.0 0.00 3.31 0.00 89 1017.5
20260830125042 59 122 6.0 10.0 0.00 3.31 0.00 89 1017.4
20260830124544 58 138 6.0 9.0 0.00 3.31 0.00 90 1017.3
20260830124027 58 168 4.0 14.0 0.00 3.31 0.00 92 1017.2
20260830123529 57 179 7.0 14.0 0.00 3.31 0.00 93 1017.1
20260830123052 57 199 6.0 12.0 0.00 3.31 0.00 94 1017.1
20260830122530 57 172 6.0 14.0 0.00 3.31 0.00 95 1017.0
20260830122034 56 166 7.0 14.0 0.00 3.31 0.00 95 1017.1
20260830121535 56 173 6.0 11.0 0.00 3.31 0.00 95 1017.0
20260830121057 56 183 7.0 12.0 0.00 3.31 0.00 96 1017.0
20260830120540 56 173 6.0 12.0 0.00 3.35 0.00 96 1017.1
20260830120044 56 183 6.0 12.0 0.00 3.35 0.00 97 1017.1
20260830115546 55 125 5.0 11.0 0.00 3.35 0.00 97 1017.1
20260830115045 55 184 6.0 10.0 0.00 3.35 0.00 97 1017.1
20260830114526 55 187 5.0 11.0 0.00 3.35 0.00 97 1017.1
20260830114029 55 184 6.0 10.0 0.00 3.35 0.00 97 1017.1
20260830113536 54 185 6.0 10.0 0.00 3.35 0.00 97 1017.3
20260830113035 54 139 7.0 10.0 0.00 3.35 0.00 97 1017.1
20260830112537 54 175 7.0 11.0 0.00 3.35 0.00 97 1017.1
20260830112039 54 195 6.0 11.0 0.00 3.35 0.00 97 1017.0
20260830111543 54 174 5.0 10.0 0.00 3.35 0.00 97 1017.1
20260830111045 54 131 5.0 10.0 0.00 3.35 0.00 97 1017.0
20260830110526 54 191 6.0 12.0 0.00 3.94 0.00 97 1016.9
20260830110046 54 171 7.0 12.0 0.00 3.94 0.00 97 1016.8
20260830105529 54 174 6.0 14.0 0.00 3.94 0.00 97 1016.6
20260830105031 54 175 8.0 14.0 0.00 3.94 0.00 97 1016.4
20260830104530 54 172 7.0 12.0 0.00 3.94 0.00 97 1016.5
20260830104034 54 175 6.0 10.0 0.00 3.94 0.00 97 1016.4
20260830103538 54 185 5.0 9.0 0.00 3.94 0.00 97 1016.5
20260830103059 54 166 5.0 12.0 0.00 3.94 0.00 97 1016.6
20260830102559 54 172 5.0 10.0 0.00 3.94 0.00 97 1016.9
20260830102101 54 198 5.0 10.0 0.00 3.94 0.00 97 1017.0
20260830101603 54 173 5.0 8.0 0.00 3.94 0.00 97 1016.9
20260830101049 54 176 5.0 9.0 0.00 3.94 0.00 97 1017.0
20260830100530 54 165 6.0 9.0 0.00 3.94 0.00 97 1016.8
20260830100056 54 164 5.0 10.0 0.00 3.94 0.00 97 1016.7
20260830095538 54 126 6.0 10.0 0.00 3.94 0.00 97 1016.5
20260830095039 54 165 5.0 9.0 0.00 3.94 0.00 97 1016.5
20260830094544 54 123 5.0 10.0 0.00 3.94 0.00 97 1016.4
20260830094028 54 140 6.0 10.0 0.00 3.94 0.00 97 1016.6
20260830093530 54 127 6.0 10.0 0.00 3.94 0.00 97 1016.5
20260830093033 54 146 7.0 12.0 0.00 3.94 0.00 97 1016.5
20260830092536 54 197 6.0 13.0 0.00 3.94 0.00 97 1016.5
20260830092038 54 198 8.0 12.0 0.00 3.94 0.00 97 1016.4
20260830091601 54 185 6.0 12.0 0.00 3.94 0.00 97 1016.4
20260830091044 54 163 4.0 12.0 0.00 3.94 0.00 97 1016.3
20260830090527 54 154 6.0 14.0 0.00 3.94 0.00 97 1016.2
20260830090034 54 164 6.0 9.0 0.00 3.94 0.00 97 1016.3
20260830085540 54 149 3.0 10.0 0.00 3.94 0.00 97 1016.1
20260830085043 54 135 5.0 10.0 0.00 3.94 0.00 97 1016.0
20260830084527 54 137 3.0 10.0 0.00 3.94 0.00 97 1016.0
20260830084030 54 114 9.0 10.0 0.00 3.94 0.00 97 1015.8
20260830083550 54 189 4.0 8.0 0.00 3.94 0.00 97 1015.9
20260830083033 54 175 4.0 12.0 0.00 3.94 0.00 97 1016.1
20260830082534 54 138 5.0 12.0 0.00 3.94 0.00 97 1016.0
20260830082041 54 84 8.0 13.0 0.00 3.94 0.00 97 1015.9
20260830081542 54 130 8.0 13.0 0.00 3.94 0.00 97 1016.0
20260830081046 54 190 5.0 9.0 0.00 3.94 0.00 97 1016.4
20260830080527 54 163 4.0 11.0 0.00 4.65 0.00 97 1016.3
20260830080046 54 184 7.0 11.0 0.00 4.65 0.00 97 1015.9
20260830075528 54 158 5.0 8.0 0.00 4.65 0.00 97 1015.9
20260830075034 54 115 2.0 9.0 0.00 4.65 0.00 97 1016.1
20260830074537 54 100 6.0 11.0 0.00 4.65 0.00 97 1015.9
20260830074058 54 217 5.0 11.0 0.00 4.65 0.00 97 1015.8
20260830073600 54 153 7.0 11.0 0.00 4.65 0.00 97 1015.9
20260830073040 54 134 6.0 11.0 0.00 4.65 0.00 97 1015.9
20260830072536 54 217 7.0 9.0 0.00 4.65 0.00 97 1015.8
20260830072035 54 213 6.0 9.0 0.00 4.65 0.00 97 1015.6
20260830071555 54 130 5.0 9.0 0.00 4.65 0.00 97 1015.5
20260830071035 54 181 5.0 11.0 0.00 4.65 0.00 97 1015.5
20260830070538 54 162 5.0 11.0 0.00 5.08 0.00 97 1015.6
20260830070046 54 191 5.0 8.0 0.00 5.08 0.00 96 1015.6
20260830065549 54 129 5.0 9.0 0.00 5.08 0.00 96 1015.6
20260830065030 54 174 5.0 9.0 0.00 5.08 0.00 96 1015.8
20260830064552 54 123 5.0 8.0 0.00 5.08 0.00 96 1015.9
20260830064031 54 167 4.0 9.0 0.00 5.08 0.00 96 1016.0
20260830063533 54 191 4.0 10.0 0.00 5.08 0.00 97 1016.1
20260830063036 54 181 4.0 10.0 0.00 5.08 0.00 97 1016.3
20260830062538 54 178 5.0 8.0 0.00 5.08 0.00 97 1016.1
20260830062044 55 180 4.0 8.0 0.00 5.08 0.00 97 1016.1
20260830061526 54 205 3.0 9.0 0.00 5.08 0.00 97 1016.0